| time (UTC) | temp F | wind direction | speed MPH | gust MPH | rain 1hr in | rain 24hr in | rain mn in | humidity % | barometer mb |
| 20260508121844 | 67 | 232 | 4.0 | 7.0 | 0.00 | 0.00 | 0.00 | 63 | 1015.0 |
| 20260508120337 | 68 | 200 | 4.0 | 13.0 | 0.00 | 0.00 | 0.00 | 65 | 1015.0 |
| 20260508114832 | 68 | 197 | 3.0 | 7.0 | 0.00 | 0.00 | 0.00 | 66 | 1014.9 |
| 20260508113327 | 68 | 234 | 4.0 | 7.0 | 0.00 | 0.00 | 0.00 | 64 | 1015.1 |
| 20260508111840 | 67 | 133 | 2.0 | 7.0 | 0.00 | 0.00 | 0.00 | 67 | 1015.3 |
| 20260508110338 | 68 | 211 | 3.0 | 9.0 | 0.00 | 0.00 | 0.00 | 65 | 1015.3 |
| 20260508104834 | 66 | 170 | 4.0 | 7.0 | 0.00 | 0.00 | 0.00 | 68 | 1015.5 |
| 20260508103335 | 66 | 239 | 3.0 | 7.0 | 0.00 | 0.00 | 0.00 | 70 | 1015.5 |
| 20260508101828 | 65 | 227 | 3.0 | 5.0 | 0.00 | 0.00 | 0.00 | 70 | 1015.6 |
| 20260508100325 | 65 | 215 | 3.0 | 10.0 | 0.00 | 0.00 | 0.00 | 68 | 1015.6 |
| 20260508094837 | 65 | 241 | 4.0 | 12.0 | 0.00 | 0.00 | 0.00 | 69 | 1015.6 |
| 20260508093346 | 65 | 103 | 2.0 | 12.0 | 0.00 | 0.00 | 0.00 | 69 | 1015.6 |
| 20260508091837 | 64 | 184 | 3.0 | 7.0 | 0.00 | 0.00 | 0.00 | 71 | 1015.6 |
| 20260508090334 | 64 | 180 | 2.0 | 9.0 | 0.00 | 0.00 | 0.00 | 72 | 1015.6 |
| 20260508084831 | 64 | 175 | 2.0 | 9.0 | 0.00 | 0.00 | 0.00 | 73 | 1015.7 |
| 20260508083346 | 63 | 220 | 4.0 | 6.0 | 0.00 | 0.00 | 0.00 | 73 | 1015.7 |
| 20260508081841 | 63 | 235 | 3.0 | 6.0 | 0.00 | 0.00 | 0.00 | 74 | 1015.7 |
| 20260508080330 | 62 | 234 | 0.0 | 3.0 | 0.00 | 0.00 | 0.00 | 74 | 1015.5 |
| 20260508074842 | 62 | 193 | 2.0 | 4.0 | 0.00 | 0.00 | 0.00 | 77 | 1015.4 |
| 20260508073338 | 61 | 10 | 2.0 | 3.0 | 0.00 | 0.00 | 0.00 | 79 | 1015.4 |
| 20260508071829 | 60 | 11 | 1.0 | 3.0 | 0.00 | 0.00 | 0.00 | 81 | 1015.3 |
| 20260508070345 | 60 | 11 | 2.0 | 3.0 | 0.00 | 0.00 | 0.00 | 84 | 1015.2 |
| 20260508064833 | 59 | 11 | 2.0 | 5.0 | 0.00 | 0.00 | 0.00 | 83 | 1015.1 |
| 20260508063346 | 59 | 15 | 3.0 | 5.0 | 0.00 | 0.00 | 0.00 | 83 | 1015.0 |
| 20260508061842 | 59 | 33 | 2.0 | 4.0 | 0.00 | 0.00 | 0.00 | 82 | 1014.8 |
| 20260508060339 | 59 | 50 | 1.0 | 4.0 | 0.00 | 0.00 | 0.00 | 82 | 1014.6 |
| 20260508054838 | 58 | 53 | 3.0 | 4.0 | 0.00 | 0.00 | 0.00 | 84 | 1014.5 |
| 20260508053335 | 56 | 53 | 3.0 | 4.0 | 0.00 | 0.00 | 0.00 | 86 | 1014.4 |
| 20260508051833 | 54 | 55 | 2.0 | 4.0 | 0.00 | 0.00 | 0.00 | 88 | 1014.3 |
| 20260508050348 | 53 | 103 | 1.0 | 3.0 | 0.00 | 0.00 | 0.00 | 89 | 1014.1 |
| 20260508044839 | 53 | 103 | 2.0 | 3.0 | 0.00 | 0.00 | 0.00 | 89 | 1014.1 |
| 20260508043336 | 52 | 103 | 0.0 | 0.0 | 0.00 | 0.01 | 0.00 | 88 | 1014.1 |
| 20260508041847 | 52 | 103 | 0.0 | 0.0 | 0.00 | 0.01 | 0.00 | 88 | 1014.0 |
| 20260508040342 | 53 | 103 | 0.0 | 0.0 | 0.00 | 0.01 | 0.00 | 88 | 1013.9 |
| 20260508034836 | 53 | 103 | 0.0 | 0.0 | 0.00 | 0.01 | 0.00 | 88 | 1013.8 |
| 20260508033333 | 52 | 103 | 1.0 | 2.0 | 0.00 | 0.03 | 0.00 | 88 | 1013.9 |
| 20260508031834 | 53 | 103 | 2.0 | 4.0 | 0.00 | 0.03 | 0.00 | 88 | 1013.8 |
| 20260508030328 | 53 | 103 | 3.0 | 4.0 | 0.00 | 0.03 | 0.00 | 88 | 1013.8 |
| 20260508024837 | 53 | 102 | 3.0 | 5.0 | 0.00 | 0.03 | 0.00 | 89 | 1013.7 |
| 20260508023330 | 52 | 103 | 1.0 | 4.0 | 0.00 | 0.03 | 0.00 | 89 | 1013.8 |
| 20260508021826 | 52 | 104 | 3.0 | 5.0 | 0.00 | 0.03 | 0.00 | 90 | 1013.7 |
| 20260508020348 | 51 | 184 | 0.0 | 3.0 | 0.00 | 0.03 | 0.00 | 90 | 1013.8 |
| 20260508014838 | 51 | 57 | 0.0 | 4.0 | 0.00 | 0.03 | 0.00 | 90 | 1013.7 |
| 20260508013339 | 51 | 142 | 0.0 | 2.0 | 0.00 | 0.03 | 0.00 | 89 | 1013.5 |
| 20260508011830 | 51 | 142 | 0.0 | 0.0 | 0.00 | 0.03 | 0.00 | 89 | 1013.5 |
| 20260508010343 | 51 | 142 | 0.0 | 0.0 | 0.00 | 0.03 | 0.00 | 90 | 1013.4 |
| 20260508004835 | 51 | 142 | 1.0 | 3.0 | 0.00 | 0.03 | 0.00 | 90 | 1013.5 |
| 20260508003329 | 51 | 144 | 2.0 | 4.0 | 0.00 | 0.03 | 0.00 | 89 | 1013.6 |
| 20260508001841 | 51 | 147 | 2.0 | 3.0 | 0.00 | 0.03 | 0.00 | 89 | 1013.6 |
| 20260508000337 | 51 | 156 | 0.0 | 0.0 | 0.00 | 0.03 | 0.00 | 89 | 1013.7 |
| 20260507234828 | 52 | 156 | 1.0 | 3.0 | 0.00 | 0.03 | 0.00 | 89 | 1013.6 |
| 20260507233325 | 52 | 157 | 1.0 | 2.0 | 0.00 | 0.03 | 0.00 | 89 | 1013.6 |
| 20260507231841 | 52 | 157 | 0.0 | 0.0 | 0.00 | 0.03 | 0.00 | 88 | 1013.7 |
| 20260507230339 | 52 | 157 | 0.0 | 0.0 | 0.00 | 0.03 | 0.00 | 88 | 1013.7 |
| 20260507224828 | 53 | 157 | 0.0 | 0.0 | 0.00 | 0.03 | 0.00 | 88 | 1013.8 |
| 20260507223341 | 53 | 157 | 0.0 | 0.0 | 0.00 | 0.03 | 0.00 | 88 | 1013.8 |
| 20260507221834 | 53 | 157 | 0.0 | 2.0 | 0.00 | 0.03 | 0.00 | 87 | 1013.7 |
| 20260507220334 | 53 | 157 | 0.0 | 1.0 | 0.00 | 0.03 | 0.00 | 86 | 1013.6 |
| 20260507214830 | 54 | 157 | 1.0 | 2.0 | 0.00 | 0.03 | 0.03 | 86 | 1013.6 |
| 20260507213346 | 54 | 157 | 0.0 | 2.0 | 0.00 | 0.03 | 0.03 | 86 | 1013.4 |
| 20260507211843 | 55 | 157 | 0.0 | 1.0 | 0.00 | 0.03 | 0.03 | 85 | 1013.3 |
| 20260507210338 | 55 | 157 | 1.0 | 3.0 | 0.00 | 0.03 | 0.03 | 85 | 1013.4 |
| 20260507204846 | 56 | 211 | 0.0 | 2.0 | 0.00 | 0.03 | 0.03 | 84 | 1013.3 |
| 20260507203336 | 57 | 211 | 1.0 | 3.0 | 0.00 | 0.03 | 0.03 | 82 | 1013.1 |
| 20260507201847 | 57 | 211 | 0.0 | 0.0 | 0.00 | 0.03 | 0.03 | 80 | 1013.1 |
| 20260507200341 | 58 | 211 | 0.0 | 0.0 | 0.00 | 0.03 | 0.03 | 80 | 1012.8 |
| 20260507194837 | 59 | 211 | 0.0 | 1.0 | 0.00 | 0.03 | 0.03 | 78 | 1012.6 |
| 20260507193330 | 60 | 211 | 0.0 | 0.0 | 0.00 | 0.03 | 0.03 | 75 | 1012.4 |
| 20260507191843 | 61 | 211 | 0.0 | 0.0 | 0.00 | 0.03 | 0.03 | 73 | 1012.1 |
| 20260507190339 | 61 | 211 | 0.0 | 0.0 | 0.00 | 0.03 | 0.03 | 69 | 1011.9 |
| 20260507184829 | 62 | 211 | 0.0 | 0.0 | 0.00 | 0.03 | 0.03 | 66 | 1011.9 |
| 20260507183338 | 64 | 211 | 0.0 | 0.0 | 0.00 | 0.36 | 0.03 | 64 | 1011.7 |
| 20260507181829 | 65 | 211 | 0.0 | 1.0 | 0.00 | 0.36 | 0.03 | 62 | 1011.7 |
| 20260507180343 | 66 | 198 | 0.0 | 2.0 | 0.00 | 0.36 | 0.03 | 59 | 1011.5 |
| 20260507174844 | 67 | 240 | 3.0 | 4.0 | 0.00 | 0.36 | 0.03 | 56 | 1011.3 |
| 20260507173338 | 67 | 238 | 4.0 | 7.0 | 0.00 | 0.36 | 0.03 | 54 | 1011.2 |
| 20260507171834 | 68 | 252 | 2.0 | 7.0 | 0.00 | 0.36 | 0.03 | 53 | 1011.1 |
| 20260507170329 | 68 | 240 | 4.0 | 7.0 | 0.00 | 0.36 | 0.03 | 54 | 1011.1 |
| 20260507164842 | 68 | 235 | 0.0 | 7.0 | 0.00 | 0.36 | 0.03 | 52 | 1010.9 |
| 20260507163332 | 69 | 233 | 2.0 | 5.0 | 0.00 | 0.36 | 0.03 | 50 | 1011.0 |
| 20260507161848 | 70 | 215 | 3.0 | 4.0 | 0.00 | 0.36 | 0.03 | 51 | 1010.8 |
| 20260507160336 | 70 | 325 | 4.0 | 5.0 | 0.00 | 0.36 | 0.03 | 49 | 1010.9 |
| 20260507154837 | 70 | 189 | 2.0 | 7.0 | 0.00 | 0.36 | 0.03 | 50 | 1010.9 |
| 20260507153524 | 70 | 247 | 5.0 | 9.0 | 0.00 | 0.36 | 0.03 | 52 | 1010.9 |
| 20260507153330 | 70 | 247 | 5.0 | 9.0 | 0.00 | 0.36 | 0.03 | 52 | 1010.9 |
| 20260507152628 | 69 | 244 | 1.0 | 4.0 | 0.00 | 0.36 | 0.03 | 54 | 1010.9 |
| 20260507151844 | 69 | 244 | 1.0 | 4.0 | 0.00 | 0.36 | 0.03 | 54 | 1010.9 |
| 20260507150340 | 70 | 250 | 4.0 | 6.0 | 0.00 | 0.36 | 0.03 | 48 | 1011.1 |
| 20260507144836 | 69 | 252 | 0.0 | 5.0 | 0.00 | 0.36 | 0.03 | 53 | 1011.1 |
| 20260507143334 | 69 | 248 | 1.0 | 6.0 | 0.00 | 0.95 | 0.03 | 52 | 1011.1 |
| 20260507141827 | 69 | 200 | 5.0 | 7.0 | 0.00 | 0.95 | 0.03 | 53 | 1011.2 |
| 20260507140342 | 69 | 245 | 3.0 | 7.0 | 0.00 | 0.95 | 0.03 | 53 | 1011.3 |
| 20260507134834 | 69 | 325 | 6.0 | 10.0 | 0.00 | 0.95 | 0.03 | 54 | 1011.4 |
| 20260507133334 | 69 | 242 | 4.0 | 10.0 | 0.00 | 1.37 | 0.03 | 58 | 1011.5 |
| 20260507131844 | 67 | 320 | 0.0 | 6.0 | 0.00 | 1.37 | 0.03 | 57 | 1011.6 |
| 20260507130342 | 69 | 319 | 2.0 | 9.0 | 0.00 | 1.37 | 0.03 | 55 | 1011.8 |
| 20260507124839 | 68 | 265 | 4.0 | 9.0 | 0.00 | 1.37 | 0.03 | 58 | 1011.8 |
| 20260507123330 | 67 | 5 | 5.0 | 7.0 | 0.00 | 1.38 | 0.03 | 60 | 1012.0 |